Regional Weather Roundup
Issued by NWS

Home | Current Version | Previous Version | Graphics & Text | Print | Product List | Glossary On
Versions: 1 2 3 4 5 6 7 8 9 10 11 12 13 14 15 16 17 18 19 20 21 22 23 24 25 26 27 28 29 30 31 32 33 34 35 36 37 38 39 40 41 42 43 44 45 46 47 48 49 50
000
ASUS43 KIND 191659
RWRIN

WEATHER ROUNDUP FOR INDIANA
NATIONAL WEATHER SERVICE INDIANAPOLIS IN
1200 PM EST THU JAN 19 2017

NOTE: "FAIR" INDICATES FEW OR NO CLOUDS BELOW 12,000 FEET WITH NO
SIGNIFICANT WEATHER AND/OR OBSTRUCTIONS TO VISIBILITY.

* - STATION DOES NOT REPORT WEATHER SUCH AS PRECIPITATION OR FOG.

+ - STATION NOT QUALITY CONTROLLED BY THE NATIONAL WEATHER SERVICE.
    USE DATA WITH CAUTION...ESPECIALLY DEWPOINT AND RELATIVE
    HUMIDITY OBSERVATIONS.

INZ001>003-010>013-019-020-191800-
NORTHWEST INDIANA

CITY           SKY/WX    TMP DP  RH WIND       PRES   REMARKS
GARY /AIRPORT/ CLOUDY    41  36  81 SE6       29.98F FOG
MICHIGAN CITY+ CLOUDY    36  36 100 S7        30.00F FOG
MONTICELLO +   CLOUDY    40  36  86 E7        29.97F
RENSSELAER +   CLOUDY    39  37  93 E10       29.97F FOG

$$

LMZ046-743>745-191800-
SOUTHERN LAKE MICHIGAN

STATION/POSITION TIME  TEMP    WIND        PRES    WAVE
                       AIR SEA DIR/SP/G            HT
                 (UTC) (F)     (DEG/KT/KT) (MB)    (FT)
BURNS HARBOR     1640   38     130/  6/  8 1015.9F

$$

INZ004-005-014>016-021>024-191800-
NORTH CENTRAL INDIANA

CITY           SKY/WX    TMP DP  RH WIND       PRES   REMARKS
ELKHART        CLOUDY    37  34  87 E6        30.01F FOG
GOSHEN         CLOUDY    37  33  85 SE8       30.01F FOG
SOUTH BEND     CLOUDY    36  35  96 SE7       30.01F FOG

$$

INZ006>009-017-018-025>027-191800-
NORTHEAST INDIANA

CITY           SKY/WX    TMP DP  RH WIND       PRES   REMARKS
ANGOLA *+      CLOUDY    34  34 100 SE6       30.01F WCI  29
FORT WAYNE     CLOUDY    39  34  82 SE6       30.02F HAZE
KENDALLVILLE + CLOUDY    35  34  96 S8        30.01F FOG     WCI  29

$$

INZ028-029-035-036-043>045-051>053-191800-
WEST CENTRAL INDIANA

CITY           SKY/WX    TMP DP  RH WIND       PRES   REMARKS
CRAWFORDSVL +  CLOUDY    40  40 100 SE12      29.97S
LAFAYETTE      CLOUDY    41  38  89 SE8       29.96F
TERRE HAUTE    CLOUDY    43  38  82 SE10      29.98F

$$

INZ030>032-037>040-046>048-054>057-064-065-191800-
CENTRAL INDIANA

CITY           SKY/WX    TMP DP  RH WIND       PRES   REMARKS
ANDERSON       PTSUNNY   39  37  93 SE6       30.01F FOG
COLUMBUS       SUNNY     43  41  93 SE5       30.02S
INDIANAPOLIS   CLOUDY    44  38  79 SE13      29.99F
-EAGLE CREEK   MOSUNNY   44  37  76 SE8       29.98F
KOKOMO +       CLOUDY    37  36  96 SE7       30.00F FOG
MT COMFORT *+  CLOUDY    41  37  87 E8        30.00F
SHELBYVILLE    CLOUDY    45  39  79 SE6       30.00S

$$

INZ033-034-041-042-049-050-058-059-191800-
EAST CENTRAL INDIANA

CITY           SKY/WX    TMP DP  RH WIND       PRES   REMARKS
MUNCIE         CLOUDY    41  36  82 SE7       30.01F

$$

INZ060-061-067>069-081>083-085>088-191800-
SOUTHWEST INDIANA

CITY           SKY/WX    TMP DP  RH WIND       PRES   REMARKS
EVANSVILLE     CLOUDY    47  42  83 E8        29.94F
HUNTINGBURG *+ LGT RAIN  49  42  77 E9        29.97F

$$

INZ062-063-066-070>080-084-089>092-191800-
SOUTH CENTRAL AND SOUTHEAST INDIANA

CITY           SKY/WX    TMP DP  RH WIND       PRES   REMARKS
BLOOMINGTON    CLOUDY    44  37  76 SE12      29.99S
MADISON *+     CLOUDY    45  37  76 SE5       30.04R
SEYMOUR +      PTSUNNY   46  39  76 SE5       30.03R

$$




USA.gov is the U.S. government's official web portal to all federal, state and local government web resources and services.